Location: *
(46.4000°N, 12.6667°E)
Time: 03:48:58
(UTC+00:00)

X-37B - Pass Details

Date: 16 December 2021
Orbit: 334 x 337 km, 45.0° (Epoch: 11 January)

Event Time Altitude Azimuth Distance (km) Brightness Sun altitude
Rises 17:06:32 0° 276° (W) 2,106 5.6 -16.9°
Reaches altitude 10° 17:08:38 10° 267° (W) 1,268 4.4 -17.2°
Maximum altitude 17:11:16 35° 199° (SSW) 561 1.7 -17.7°
Enters shadow 17:12:04 28° 161° (SSE) 658 1.7 -17.8°
